Weather History for Sidney-Richland, MT

Change the Weather History Date:

Tuesday, July 2, 2013

  Actual Average Record
Temperature  
Mean Temperature 72 °F -  
Max Temperature 89 °F 83 °F 99 °F (1990)
Min Temperature 55 °F 54 °F 36 °F (1968)
Cooling Degree Days 7    
Growing Degree Days 22 (Base 50)    
Moisture  
Dew Point 55 °F    
Average Humidity 55    
Maximum Humidity 88    
Minimum Humidity 31    
Precipitation  
Precipitation 0.00 in - - ()
Sea Level Pressure  
Sea Level Pressure 30.13 in    
Wind  
Wind Speed 3 mph (SSE)    
Max Wind Speed 8 mph    
Max Gust Speed -    
Visibility 10 miles    
Events      
Averages and records for this station are not official NWS values.
T = Trace of Precipitation, MM = Missing Value Source: NWS Daily Summary

Daily Weather History Graph

Daily Weather History Graph

Search for Another Location

Airport:

Trip Planner

Search our weather history database for the weather conditions in past years. The results will help you decide how hot, cold, wet, or windy it might be!

Date:

Astronomy

Jul. 02, 2013 Rise Set
Actual Time 5:03 AM MDT 8:58 PM MDT
Civil Twilight 4:23 AM MDT 9:38 PM MDT
Nautical Twilight 3:27 AM MDT 10:33 PM MDT
Astronomical Twilight 2:00 AM MDT 11:59 PM MDT
Moon 1:20 AM MDT (7/2) 4:03 PM MDT (7/2)
Length of Visible Light 17h 15m
Length of Day
15h 54m
Waning Crescent, 26% of the Moon is Illuminated
Jul 2
Waning Crescent
Jul 8
New
Jul 15
First Quarter
Jul 22
Full
Jul 29
Last Quarter

Hourly Weather History & Observations

Time (MDT) Temp. Heat Index Dew Point Humidity Pressure Visibility Wind Dir Wind Speed Gust Speed Precip Events Conditions
12:15 AM 66.2 °F - 53.6 °F 64% 30.20 in 10.0 mi SSW 6.9 mph - N/A   Clear
12:35 AM 66.2 °F - 53.6 °F 64% 30.20 in 10.0 mi SSW 6.9 mph - N/A   Clear
12:55 AM 66.2 °F - 53.6 °F 64% 30.20 in 10.0 mi SSW 4.6 mph - N/A   Clear
1:15 AM 64.4 °F - 53.6 °F 68% 30.20 in 10.0 mi SW 4.6 mph - N/A   Clear
1:35 AM 64.4 °F - 53.6 °F 68% 30.20 in 10.0 mi Calm Calm - N/A   Clear
1:55 AM 62.6 °F - 51.8 °F 68% 30.19 in 10.0 mi Calm Calm - N/A   Clear
2:15 AM 62.6 °F - 51.8 °F 68% 30.19 in 10.0 mi Calm Calm - N/A   Clear
2:35 AM 62.6 °F - 51.8 °F 68% 30.19 in 10.0 mi Calm Calm - N/A   Mostly Cloudy
2:55 AM 60.8 °F - 51.8 °F 72% 30.19 in 10.0 mi Calm Calm - N/A   Mostly Cloudy
3:15 AM 60.8 °F - 51.8 °F 72% 30.19 in 10.0 mi Calm Calm - N/A   Mostly Cloudy
3:35 AM 60.8 °F - 51.8 °F 72% 30.18 in 10.0 mi Calm Calm - N/A   Mostly Cloudy
3:56 AM 57.2 °F - 51.8 °F 82% 30.18 in 10.0 mi Calm Calm - N/A   Scattered Clouds
4:15 AM 59.0 °F - 51.8 °F 77% 30.19 in 10.0 mi Calm Calm - N/A   Clear
4:35 AM 57.2 °F - 50.0 °F 77% 30.18 in 10.0 mi Calm Calm - N/A   Clear
4:55 AM 57.2 °F - 50.0 °F 77% 30.18 in 10.0 mi Calm Calm - N/A   Clear
5:15 AM 57.2 °F - 50.0 °F 77% 30.18 in 10.0 mi Calm Calm - N/A   Clear
5:35 AM 55.4 °F - 51.8 °F 88% 30.19 in 5.0 mi Calm Calm - N/A   Clear
5:55 AM 57.2 °F - 51.8 °F 82% 30.19 in 4.0 mi Calm Calm - N/A   Clear
6:15 AM 60.8 °F - 53.6 °F 77% 30.19 in 10.0 mi Calm Calm - N/A   Clear
6:55 AM 64.4 °F - 53.6 °F 68% 30.19 in 8.0 mi Calm Calm - N/A   Clear
7:15 AM 64.4 °F - 53.6 °F 68% 30.19 in 10.0 mi Calm Calm - N/A   Clear
7:35 AM 66.2 °F - 53.6 °F 64% 30.19 in 10.0 mi South 3.5 mph - N/A   Clear
8:15 AM 69.8 °F - 53.6 °F 56% 30.19 in 10.0 mi Calm Calm - N/A   Clear
8:35 AM 71.6 °F - 55.4 °F 57% 30.19 in 9.0 mi SE 3.5 mph - N/A   Clear
9:15 AM 73.4 °F - 55.4 °F 53% 30.19 in 10.0 mi Calm Calm - N/A   Clear
9:35 AM 75.2 °F - 57.2 °F 53% 30.18 in 9.0 mi Calm Calm - N/A   Clear
9:55 AM 75.2 °F - 60.8 °F 61% 30.18 in 8.0 mi East 3.5 mph - N/A   Clear
10:15 AM 78.8 °F - 60.8 °F 54% 30.18 in 10.0 mi ESE 3.5 mph - N/A   Clear
10:35 AM 78.8 °F - 60.8 °F 54% 30.17 in 10.0 mi East 3.5 mph - N/A   Clear
10:55 AM 80.6 °F 81.5 °F 60.8 °F 51% 30.17 in 10.0 mi East 3.5 mph - N/A   Clear
11:15 AM 82.4 °F 82.9 °F 60.8 °F 48% 30.16 in 10.0 mi ESE 5.8 mph - N/A   Clear
11:35 AM 84.2 °F 83.5 °F 57.2 °F 40% 30.16 in 10.0 mi East 3.5 mph - N/A   Clear
11:55 AM 84.2 °F 83.5 °F 57.2 °F 40% 30.15 in 10.0 mi South 6.9 mph - N/A   Clear
12:35 PM 84.2 °F 83.0 °F 55.4 °F 37% 30.15 in 10.0 mi South 6.9 mph - N/A   Clear
12:55 PM 84.2 °F 83.0 °F 55.4 °F 37% 30.14 in 10.0 mi SSE 4.6 mph - N/A   Clear
1:15 PM 87.8 °F 87.1 °F 59.0 °F 38% 30.14 in 10.0 mi SE 8.1 mph - N/A   Clear
1:35 PM 87.8 °F 86.1 °F 55.4 °F 33% 30.14 in 10.0 mi East 3.5 mph - N/A   Clear
1:55 PM 87.8 °F 86.1 °F 55.4 °F 33% 30.13 in 10.0 mi ESE 6.9 mph - N/A   Clear
2:15 PM 87.8 °F 86.1 °F 55.4 °F 33% 30.13 in 10.0 mi SE 5.8 mph - N/A   Clear
2:35 PM 87.8 °F 86.1 °F 55.4 °F 33% 30.12 in 10.0 mi SE 3.5 mph - N/A   Clear
2:55 PM 87.8 °F 86.5 °F 57.2 °F 35% 30.12 in 9.0 mi South 8.1 mph - N/A   Clear
3:35 PM 87.8 °F 86.1 °F 55.4 °F 33% 30.11 in 10.0 mi East 5.8 mph - N/A   Partly Cloudy
3:55 PM 87.8 °F 86.1 °F 55.4 °F 33% 30.10 in 10.0 mi SE 8.1 mph - N/A   Partly Cloudy
4:15 PM 87.8 °F 85.7 °F 53.6 °F 31% 30.10 in 10.0 mi South 4.6 mph - N/A   Clear
4:35 PM 89.6 °F 87.7 °F 55.4 °F 31% 30.09 in 10.0 mi Calm Calm - N/A   Clear
4:55 PM 87.8 °F 85.7 °F 53.6 °F 31% 30.08 in 10.0 mi South 4.6 mph - N/A   Clear
5:15 PM 87.8 °F 86.5 °F 57.2 °F 35% 30.08 in 10.0 mi SE 5.8 mph - N/A   Clear
5:55 PM 87.8 °F 86.1 °F 55.4 °F 33% 30.07 in 10.0 mi South 3.5 mph - N/A   Clear
6:15 PM 87.8 °F 87.1 °F 59.0 °F 38% 30.07 in 10.0 mi ESE 5.8 mph - N/A   Clear
6:35 PM 86.0 °F 84.9 °F 57.2 °F 37% 30.07 in 10.0 mi Calm Calm - N/A   Clear
6:55 PM 86.0 °F 85.4 °F 59.0 °F 40% 30.06 in 10.0 mi SSE 4.6 mph - N/A   Clear
7:35 PM 84.2 °F 84.4 °F 60.8 °F 45% 30.05 in 10.0 mi SE 4.6 mph - N/A   Clear
7:55 PM 82.4 °F 82.9 °F 60.8 °F 48% 30.04 in 10.0 mi ESE 5.8 mph - N/A   Clear
8:16 PM 78.8 °F - 60.8 °F 54% 30.04 in 10.0 mi ESE 3.5 mph - N/A   Clear
8:35 PM 78.8 °F - 60.8 °F 54% 30.03 in 10.0 mi ESE 3.5 mph - N/A   Clear
8:55 PM 75.2 °F - 57.2 °F 53% 30.03 in 10.0 mi Calm Calm - N/A   Clear
9:15 PM 73.4 °F - 57.2 °F 57% 30.03 in 10.0 mi Calm Calm - N/A   Clear
9:35 PM 73.4 °F - 57.2 °F 57% 30.03 in 10.0 mi Calm Calm - N/A   Clear
9:55 PM 71.6 °F - 57.2 °F 60% 30.04 in 10.0 mi Calm Calm - N/A   Clear
10:35 PM 69.8 °F - 55.4 °F 60% 30.03 in 10.0 mi South 5.8 mph - N/A   Clear
10:55 PM 69.8 °F - 55.4 °F 60% 30.03 in 10.0 mi SW 4.6 mph - N/A   Clear
11:15 PM 68.0 °F - 55.4 °F 64% 30.02 in 10.0 mi SSW 5.8 mph - N/A   Clear
11:35 PM 66.2 °F - 55.4 °F 68% 30.03 in 10.0 mi SSW 3.5 mph - N/A   Clear
11:55 PM 66.2 °F - 55.4 °F 68% 30.02 in 10.0 mi South 3.5 mph - N/A   Clear